Location: Unspecified
(0.0000°N, 0.0000°E)
Time: 23:09:51
(UTC+00:00)

SR - All Passes

Search period start: 29 June 2015 00:00
Search period end: 09 July 2015 00:00
Orbit: 583 x 877 km, 66.7° (Epoch: 29 June)

Date Brightness Start Highest point End Pass type
(mag) Time Alt. Az. Time Alt. Az. Time Alt. Az.
29 Jun - 00:25:59 10° WSW 00:28:50 16° WNW 00:31:21 10° NNW night (unlit)
29 Jun - 11:07:06 10° N 11:12:30 64° ENE 11:18:18 10° SSE daylight
29 Jun - 23:35:33 10° SW 23:39:56 45° WNW 23:44:02 10° N night (unlit)
30 Jun - 10:19:08 10° NNE 10:23:37 27° ENE 10:28:27 10° SE daylight
30 Jun - 12:01:14 10° WNW 12:05:42 23° WSW 12:10:09 10° SSW daylight
30 Jun - 22:46:32 10° S 22:51:04 59° ESE 22:55:20 10° NNE night (unlit)
01 Jul - 09:33:50 10° ENE 09:34:35 10° ENE 09:35:52 10° E daylight
01 Jul - 11:11:15 10° NNW 11:16:39 55° WSW 11:22:21 10° S daylight
01 Jul - 21:58:44 10° SSE 22:02:04 20° ESE 22:05:24 10° ENE night (unlit)
01 Jul - 23:41:08 10° WSW 23:44:01 16° WNW 23:46:37 10° NNW night (unlit)
02 Jul - 10:22:19 10° N 10:27:44 63° ENE 10:33:31 10° SSE daylight
02 Jul - 22:50:45 10° SW 22:55:07 46° WNW 22:59:14 10° N night (unlit)
03 Jul - 09:34:23 10° NNE 09:38:50 26° ENE 09:43:39 10° SE daylight
03 Jul - 11:16:23 10° WNW 11:20:55 24° WSW 11:25:26 10° SSW daylight
03 Jul - 22:01:46 10° S 22:06:16 56° ESE 22:10:29 10° NNE night (unlit)
04 Jul - 08:49:25 10° ENE 08:49:48 10° ENE 08:50:43 10° ENE daylight
04 Jul - 10:26:25 10° NNW 10:31:52 57° WSW 10:37:37 10° S daylight
04 Jul - 21:14:01 10° SSE 21:17:15 20° ESE 21:20:30 10° ENE night (unlit)
04 Jul - 22:56:16 10° WSW 22:59:12 17° WNW 23:01:52 10° NNW night (unlit)
05 Jul - 09:37:31 10° N 09:42:58 61° ENE 09:48:45 10° SSE daylight
05 Jul - 22:05:56 10° SW 22:10:19 48° WNW 22:14:26 10° N night (unlit)
06 Jul - 08:49:37 10° NNE 08:54:03 26° ENE 08:58:50 10° SE daylight
06 Jul - 10:31:31 10° WNW 10:36:08 25° WSW 10:40:44 10° SSW daylight
06 Jul - 21:17:00 10° S 21:21:26 54° ESE 21:25:39 10° NNE night (unlit)
07 Jul - 09:41:36 10° NNW 09:47:05 58° WSW 09:52:51 10° S daylight
07 Jul - 20:29:18 10° SSE 20:32:25 19° ESE 20:35:36 10° ENE night (unlit)
07 Jul - 22:11:23 10° WSW 22:14:23 17° WNW 22:17:07 10° NNW night (unlit)
08 Jul - 08:52:44 10° N 08:58:11 60° ENE 09:03:58 10° SSE daylight
08 Jul - 10:39:43 10° WSW 10:40:33 10° WSW 10:40:49 10° WSW daylight
08 Jul - 21:21:07 10° SW 21:25:29 49° WNW 21:29:37 10° N night (unlit)
